Regional Weather Roundup
Issued by NWS Pendleton, OR

Home | Current Version | Previous Version | Text Only | Print | Product List | Glossary On
Versions: 1 2 3 4 5 6 7 8 9 10 11 12 13 14 15 16 17 18 19 20 21 22 23 24 25 26 27 28 29 30 31 32 33 34 35 36 37 38 39 40 41 42 43 44 45 46 47 48 49 50
000
ASUS46 KPDT 231510
RWRPDT
PENDLETON REGIONAL WEATHER ROUNDUP
NATIONAL WEATHER SERVICE PENDLETON OREGON
800 AM PDT THU OCT 23 2014

NOTE: FAIR INDICATES FEW OR NO CLOUDS BELOW 12,000 FEET WITH NO
SIGNIFICANT WEATHER AND/OR OBSTRUCTIONS TO VISIBILITY.

# INDICATES UNOFFICIAL STATION AND DATA

WAZ520-231610-
EAST SLOPES OF WASHINGTON CASCADES

CITY            SKY/WX      TMP DP  RH  WIND    PRES   REMARKS
#BUMPING DAM    N/A         39  N/A N/A S1      N/A
#CLE ELUM HS    N/A         43  43  100 CALM    29.75R
#CLE ELUM 2NW   N/A         43  43  100 CALM    N/A
#CLE ELUM LAKE  N/A         N/A N/A N/A S13     29.74R
#CLIFFDEL 2NW   N/A         41  41  100 SW1     N/A
#GLENWOOD       N/A         46  45  96  CALM    29.76S
#MANASTASH CYN  N/A         42  39  89  CALM    29.75R
#NELSON         N/A         43  42  96  CALM    29.79R
#NELSON 3SW     N/A         41  40  96  CALM    29.96R
#NILE           N/A         41  40  96  CALM    29.03S
#PEOH POINT     N/A         39  38  96  E1      N/A
#RONALD 2NW     N/A         43  41  93  CALM    29.65R
#SNOWDEN        N/A         47  44  89  CALM    N/A
#TEANAWAY 4NE   N/A         42  42  100 CALM    N/A
#TROUT LAKE HS  N/A         47  47  100 S1      N/A
#TROUT LAKE 1NE N/A         45  44  96  CALM    29.78R
$$

WAZ521-231610-
SIMCOE HIGHLANDS

CITY            SKY/WX      TMP DP  RH  WIND    PRES   REMARKS
#BICKLETON HS   N/A         46  40  79  W7      29.88S
#SATUS PASS DOT N/A         44  43  96  CALM    N/A
#CENTERVILLE 4W N/A         49  46  89  N1      29.54F
#CENTERVILLE 1SWN/A         47  44  89  CALM    29.73F
#GOLDENDALE     N/A         49  47  93  N1      N/A
#GOLDENDALE 1NE N/A         49  49  100 E2      N/A
#GOLDENDALE 1S  N/A         48  46  93  NE2     29.76F
#GOLDENDALE 5WNWN/A         49  47  93  NE1     29.74F
#GOODNOE HILLS  N/A         52  47  83  S3      29.71F
#LYLE 6NE       N/A         48  47  96  CALM    29.74F
$$

WAZ026-231610-
KITTITAS VALLEY

CITY            SKY/WX      TMP DP  RH  WIND    PRES   REMARKS
ELLENSBURG AP   LGT RAIN    46  43  89  SE3     29.76S
#ELLENSBURG CWU N/A         45  43  93  N1      29.71S
#ELLENSBURG 3NE N/A         44  42  93  CALM    29.78S
#ELLENSBURG     N/A         47  47  100 SE1     N/A
#KITTITAS 3S    N/A         43  42  96  CALM    29.74F
#THORP 6N       N/A         43  42  96  SW1     29.77R
$$

WAZ027-231610-
YAKIMA VALLEY

CITY            SKY/WX      TMP DP  RH  WIND    PRES   REMARKS
SUNNYSIDE AP    CLOUDY      52  48  86  CALM    29.77S
YAKIMA AIRPORT  PTCLDY      46  44  93  NW6     29.76S
YAKIMA-VAGABOND MOCLDY      48  45  89  VRB5    29.76F
#COWICHE 1N     N/A         45  41  86  CALM    29.91F
#DONALD 2NE     N/A         52  45  77  SW1     30.08F
#GRANDVIEW      N/A         54  49  83  CALM    29.77S
#MABTON         N/A         55  49  80  SE3     29.77S
#MOXEE 2E       N/A         51  44  77  E3      29.73F
#NACHES 2SW     N/A         45  43  93  CALM    29.73S
#TERRACE HTS    N/A         51  46  83  CALM    29.71F
#WAPATO 4NE     N/A         52  45  77  SW1     30.08F
#WEST VALLEY    N/A         46  44  93  CALM    29.73S
#W YAKIMA       N/A         47  44  89  CALM    29.75S
#WHITE SWAN 5E  N/A         55  45  69  NW2     29.74F
#WILEY CITY 3W  N/A         44  31  60  CALM    29.96S
$$

WAZ028-231610-
LOWER COLUMBIA BASIN...WASHINGTON

CITY            SKY/WX      TMP DP  RH  WIND    PRES   REMARKS
PASCO           CLOUDY      57  53  86  S9      29.77F
PROSSER AWOS    N/A         57  50  77  S6      29.80S
RICHLAND AWOS   LGT RAIN    57  52  83  SE6     29.78R
#CONNELL 5N     N/A         52  50  93  E1      29.75S
#CONNELL 5NW    N/A         53  51  93  S3      29.72R
#ELTOPIA        N/A         56  54  93  CALM    29.72F
#ELTOPIA 6NW    N/A         54  53  96  S6      28.74S
#KENNEWICK 3S   N/A         54  50  86  SE1     29.75F
#PASCO-BROADMOORN/A         57  52  83  S1      29.65S
#PATERSON       N/A         55  52  90  NW1     29.75F
#PROSSER DOT    N/A         56  52  86  W5      N/A
#PROSSER        N/A         54  50  86  W1      29.75S
#SAGEMOOR 2W    N/A         54  52  93  SE1     29.61S
#TOUCHET 2S     N/A         53  51  93  CALM    29.74S
#WEST PASCO     N/A         58  51  77  S2      29.75S
$$

WAZ029-231610-
FOOTHILLS OF THE BLUES...WASHINGTON

CITY            SKY/WX      TMP DP  RH  WIND    PRES   REMARKS
WALLA WALLA AP  CLOUDY      55  52  90  CALM    29.78S
#LOWDEN 2SE     N/A         55  54  96  CALM    29.74S
#PLEASANT VIEW 1N/A         51  49  93  CALM    29.80R
#PRESCOTT       N/A         55  54  96  CALM    29.75R
#SUDBURY        N/A         57  N/A N/A CALM    N/A
#WHITMAN COLLEGEN/A         56  53  90  SW1     29.80R
#WAITSBURG 8N   N/A         53  50  89  CALM    29.74S
#WALLA WALLA 5E N/A         60  49  67  CALM    N/A
#WALLA WALLA U  N/A         56  54  93  CALM    29.75R
#WHITMAN MISSIONN/A         55  53  93  CALM    29.77R
$$

WAZ030-231610-
BLUE MOUNTAINS...WASHINGTON

CITY            SKY/WX      TMP DP  RH  WIND    PRES   REMARKS
$$

ORZ009-041-WAZ024-231610-
COLUMBIA RIVER GORGE

CITY            SKY/WX      TMP DP  RH  WIND    PRES   REMARKS
HOOD RIVER AP   RAIN        50  50  100 CALM    29.78S
THE DALLES AP   MOCLDY      53  50  89  NW3     29.78F
#ARLINGTON AIRPON/A         54  49  83  CALM    29.98S
#ARLINGTON HS   N/A         56  48  74  NW5     29.69S
#CELILO DOT     N/A         54  46  74  SE1     N/A
#LYLE           N/A         53  51  93  N2      29.78F
#MARYHILL       N/A         53  47  80  E5      N/A
#MARYHILL 2W    N/A         53  51  93  SW1     N/A
#MOSIER 1S      N/A         50  48  93  CALM    N/A
#MURDOCK        N/A         55  53  93  NW1     29.80F
#RUFUS DOT      N/A         56  47  72  SE3     N/A

$$

ORZ510-231610-
NORTH CENTRAL OREGON

CITY            SKY/WX      TMP DP  RH  WIND    PRES   REMARKS
#CHENOWITH 1W   N/A         48  47  96  SW2     N/A
#COW CYN RST AREN/A         51  48  89  S9      N/A
#DUFUR 9E       N/A         47  44  89  E2      29.78F
#GRASS VALLEY   N/A         49  49  100 SE5     N/A
#GRASS VALLEY 1SN/A         50  48  93  SW2     29.77S
#KENT DOT       N/A         50  43  77  S5      N/A
#MAUPIN SCHOOL  N/A         55  51  86  CALM    28.65F
#MORO SCHOOL    N/A         49  49  100 CALM    29.80F
#SHANIKO 5WSW   N/A         48  44  86  S21     N/A    WCI 41
#SHANIKO 4NW    N/A         48  47  96  S21G32  29.78F WCI 41
#TYGH VALLEY 2NEN/A         52  49  89  CALM    29.74S
#WAPANITIA AIRPON/A         53  48  83  CALM    29.74F
#WASCO DOT      N/A         47  45  93  E3      N/A
#WASCO 5NE      N/A         47  44  89  CALM    29.77S
$$

ORZ511-231610-
CENTRAL OREGON

CITY            SKY/WX      TMP DP  RH  WIND    PRES   REMARKS
BEND AIRPORT    LGT RAIN    52  45  77  SW15    29.84F
MADRAS AIRPORT  CLOUDY      52  50  93  S10     29.82R
PRINEVILLE AP   MOCLDY      52  45  77  S13     29.84S
REDMOND AIRPORT PTCLDY      52  44  74  S9      29.82F
#BEND 6E        N/A         54  42  64  CALM    29.72S
#BEND 1SW       N/A         48  46  93  SW3     N/A
#BEND-KIM LN    N/A         49  46  89  S7      29.80F
#CROOKED RVR RANN/A         51  49  93  SW36G51 29.75F
#CULVER         N/A         52  47  83  S7      29.78S
#LAKE BILLY CHINN/A         51  44  77  S9      29.87S
#POWELL BUTTE 3EN/A         54  43  66  S10     N/A
#POWELL BUTTE   N/A         53  44  71  S13     29.47F
#PRINEVILLE 3N  N/A         51  46  83  CALM    29.73R
#WARM SPRINGS   N/A         52  49  89  CALM    29.77S


ORZ509-231610-
EAST SLOPES OF OREGON CASCADES

CITY            SKY/WX      TMP DP  RH  WIND    PRES   REMARKS
#CAMP SHERMAN   N/A         48  46  93  CALM    29.76S
#LA PINE DOT    N/A         46  45  96  S2      N/A
#LA PINE 4NW    N/A         46  43  89  CALM    29.85F
#LAVA BUTTE DOT N/A         46  44  93  SE3     N/A
#SISTERS AIRPOR N/A         47  47  100 N1      29.91S
#SISTERS ODOT   N/A         47  N/A N/A CALM    N/A
#SISTERS 3N     N/A         47  45  93  CALM    29.86S
#SUNRIVER       N/A         47  46  96  S3      29.69S
#SUNRIVER AP    N/A         46  45  96  SW5     29.76F
#SUTTLE LK DOT  N/A         42  42  100 SW7     N/A
#TUMALO 3W      N/A         48  46  93  S5      29.65F
#WANOGA BUTTE D N/A         41  N/A N/A W10     N/A

$$

ORZ044-231610-
LOWER COLUMBIA BASIN...OREGON

CITY            SKY/WX      TMP DP  RH  WIND    PRES   REMARKS
HERMISTON       CLOUDY      55  52  90  CALM    29.77S
#BOARDMAN SCHOOLN/A         55  51  86  CALM    29.77F
#BOARDMAN 3W    N/A         54  52  93  CALM    29.47S
#BOARDMAN 8SW   N/A         54  52  93  CALM    29.76F
#ECHO 8SW       N/A         54  50  86  SE1     29.74F
#IONE SCHOOL    N/A         54  44  69  CALM    29.77F
#IRRIGON 4NW    N/A         55  54  96  SE5     N/A
#UMATILLA SCHOOLN/A         53  53  100 CALM    29.81F
#UMATILLA       N/A         56  50  80  CALM    29.74F
$$

ORZ507-231610-
NORTHERN FOOTHILLS OF THE BLUES

CITY            SKY/WX      TMP DP  RH  WIND    PRES   REMARKS
PENDLETON AIRPT CLOUDY      52  50  93  E5      29.78S
#ADAMS 3WNW     N/A         51  48  89  CALM    29.76R
#ATHENA         N/A         51  49  93  CALM    29.76S
#CAYUSE         N/A         53  50  89  SW5     29.75R
#HELIX SCHOOL   N/A         52  50  93  CALM    29.75R
#HELIX 3N       N/A         52  49  89  N6      29.77R
#HOLDMAN 5SE    N/A         52  50  93  CALM    29.80S
#HOLDMAN 6E     N/A         52  50  93  CALM    29.57S
#M-F FERNDALE   N/A         55  51  86  CALM    29.78S
#M-F GROVE ELEM N/A         55  49  80  CALM    29.78S
#M-FREEWATER 5SEN/A         53  50  89  SW2     29.78F
#PENDLETON DNTN N/A         53  47  80  CALM    28.58S
#PDT AQUATIC CTRN/A         54  45  71  N3      29.79S
#PDT SUNRIDGE   N/A         51  49  93  CALM    29.79F
#PENDLETON 7NW  N/A         52  48  86  E2      26.36F
#PILOT ROCK     N/A         50  45  83  CALM    29.81S
#TUTUILLA       N/A         51  48  89  CALM    29.76S
#UMAPINE 2E     N/A         54  52  93  CALM    29.75S
#WESTON SCHOOL  N/A         54  45  71  CALM    29.76S

$$

ORZ508-231610-
SOUTHERN FOOTHILLS OF THE BLUES

CITY            SKY/WX      TMP DP  RH  WIND    PRES   REMARKS
LEXINGTON       MOCLDY      55  52  90  SE5     29.80S
#AJAX           N/A         54  43  66  S10     29.74S
#CONDON SCHOOL  N/A         52  49  89  CALM    29.78S
#CONDON 5W      N/A         50  46  86  S7      29.78S
#FOSSIL SCHOOL  N/A         55  48  77  S5      29.79R
#HEPPNER EOC    N/A         53  50  89  SE7     29.68F
#HEPPNER 4NE    N/A         52  48  86  CALM    29.72F
#LEXINGTON 2SE  N/A         55  51  86  SE3     29.75F
#MIKKALO        N/A         51  48  89  E2      29.78S
#OLEX 4N        N/A         51  48  89  W3      29.77S
#RUGGS 5NE      N/A         53  45  74  S7      29.94S
#RUGGS 2SW      N/A         53  46  77  SW3     29.75S

$$

ORZ502-503-231610-
BLUE MOUNTAINS

CITY            SKY/WX      TMP DP  RH  WIND    PRES   REMARKS
MEACHAM         MOCLDY      49  43  80  CALM    29.83F
#BATTLE MTN DOT N/A         51  45  80  S10     N/A
#HARDMAN 10S    N/A         50  41  71  SE10    29.90F
#HEPPNER 15SE   N/A         52  42  69  N6      29.73R
#LADD CYN SMT   N/A         51  38  61  SE8     N/A
#LADD CREEK ODOTN/A         54  23  30  S7      N/A
#LONG CREEK HS  N/A         55  45  69  S18G31  29.81
#N POWDER DOT   N/A         55  43  64  S23     N/A
#PIKES PEAK     N/A         56  42  59  SW20G35 27.99S
#TROY SCHOOL    N/A         51  48  89  CALM    29.68R
#UKIAH          N/A         56  44  64  SE5     29.81S
#WESTON 4E      N/A         54  43  66  SE13    29.71S
$$

ORZ505-231610-
JOHN DAY BASIN

CITY            SKY/WX      TMP DP  RH  WIND    PRES   REMARKS
JOHN DAY        CLOUDY      55  44  66  SW13G28 29.91S
#JOHN DAY KJDY  N/A         57  46  67  SW2     30.06R
#DAYVILLE SCHOOLN/A         60  42  51  SE5     29.84S
#MONUMENT HS    N/A         63  41  44  SW1     29.83
#MT. VERNON 5SE N/A         52  43  71  S8      29.86R
#WINLOCK        N/A         52  45  77  CALM    29.93R
$$

ORZ506-231610-
OCHOCO AND JOHN DAY HIGHLANDS

CITY            SKY/WX      TMP DP  RH  WIND    PRES   REMARKS
#BUCK CREEK DOT N/A         53  48  83  S16     N/A
#HORSE RIDGE DO N/A         48  43  83  SE7     N/A
#KEYES SMT DOT  N/A         50  43  77  S8      N/A
#PAULINA SCHOOL N/A         N/A N/A N/A SW7     29.90S
#PINE MTN OBS   N/A         40  39  96  S24G35  N/A    WCI 30
#PRAIRIE CITY   N/A         52  40  63  CALM    29.91R
#SENECA         N/A         47  N/A N/A CALM    N/A
#SENECA 9NW     N/A         47  43  86  CALM    29.86R
$$

ORZ049-231610-
GRANDE RONDE VALLEY

CITY            SKY/WX      TMP DP  RH  WIND    PRES   REMARKS
LA GRANDE       CLOUDY      57  36  45  S8      29.87R
#COVE           N/A         59  45  60  SE15    29.79R
#COVE SCHOOL    N/A         59  42  53  SE12    29.85R
#COVE 6NW       N/A         57  41  55  SE5     29.83R
#ELGIN 3N       N/A         57  40  53  S13     29.58S
#ELGIN 1E       N/A         56  42  59  S1      N/A
#IMBLER SCHOOL  N/A         63  35  35  SW3     29.84S
#ISLAND CITY 4N N/A         53  52  96  CALM    29.75R
#LADD CYN DOT   N/A         56  41  57  SW16G24 N/A
#UNION 1S       N/A         59  42  53  SE13G26 29.71R
$$

ORZ050-231610-
WALLOWA COUNTY

CITY            SKY/WX      TMP DP  RH  WIND    PRES   REMARKS
#ENTERPRISE HS  N/A         55  42  61  E5      29.89R
#IMNAHA SCHOOL  N/A         60  41  49  S13G25  29.83S
#IMNAHA 10S     N/A         56  42  59  SW7     29.89R
#JOSEPH 3N      N/A         53  42  66  E3G26   29.89R
#JOSEPH 3W      N/A         53  39  59  N1      29.75R
#LOSTINE        N/A         58  41  53  E5      29.60R
#MT HOWARD 8000 N/A         35  33  92  S20G35  29.93R WCI 24
#PROMISE 1S     N/A         50  42  74  E5      29.88S
#SHEEP RDG 7000 N/A         43  34  70  CALM    29.82R
#WALLOWA SCHOOL N/A         51  44  77  CALM    30.73R



$$



USA.gov is the U.S. government's official web portal to all federal, state and local government web resources and services.